CAPE
0 0 0 0 0 0 0 0 0 0 0 0 0 0 0 0 0 0 0 0 0 0 0 0 0 0 0 0 10 19 3 0 0 0 0 0 17 7 11 1 0 0 0 0
0 0 0 0 0 0 0 1 0 0 0 0 0 0 0 0 0 0 0 0 0 0 0 0 0 0 0 0 0 18 0 19 7 0 0 0 2 25 18 4 0 0 1 0
0 0 0 0 0 0 0 0 0 2 4 3 3 1 0 0 0 0 0 0 0 0 0 0 0 1 0 0 0 0 0 0 0 0 0 0 0 0 17 19 3 2 0 0
0 0 0 0 0 0 0 5 4 0 0 0 0 0 0 0 3 0 0 0 0 0 1 0 2 2 0 1 0 12 5 1 0 0 0 0 0 0 0 0 2 28 0 0
0 0 0 0 0 0 3 0 0 0 5 11 5 2 0 0 0 3 11 1 2 1 9 8 0 7 8 12 10 8 2 8 2 0 0 1 8 0 0 0 0 0 0 0
0 0 0 0 0 0 8 0 0 1 0 0 0 3 3 3 12 1 9 8 7 3 1 0 0 0 0 0 0 0 0 1 0 0 6 3 0 0 2 1 5 3 0 0
0 0 0 0 0 0 4 4 2 0 1 0 0 0 0 0 0 0 4 9 10 6 0 0 0 0 0 0 0 0 0 0 3 0 1 2 0 0 0 2 1 1 0 0
0 0 0 0 0 0 8 0 10 7 6 0 0 0 0 0 0 0 0 0 0 0 0 0 0 0 0 0 0 0 0 2 0 1 0 0 0 0 0 0 2 0 0 0
0 0 0 0 0 0 4 6 1 0 0 2 0 0 0 0 0 4 12 4 0 0 0 0 0 0 0 5 9 7 7 23 12 3 13 1 0 0 0 0 0 0 0 0
0 0 0 0 0 0 1 5 1 16 3 2 1 0 4 6 4 1 9 17 10 1 0 2 5 4 7 6 12 4 13 27 4 2 15 5 0 0 1 3 0 0 0 0
0 0 0 0 0 0 0 14 0 5 5 8 15 6 2 0 1 0 9 2 8 6 1 3 3 1 4 9 10 9 2 0 0 5 14 4 0 2 6 1 0 2 0 0
0 0 0 0 0 0 0 12 0 2 10 1 0 0 0 1 3 6 8 13 2 3 10 13 8 11 3 0 0 0 0 2 4 7 0 0 0 0 2 2 7 5 13 0
0 0 0 0 0 0 0 14 18 5 0 0 0 1 4 9 1 11 1 17 18 11 15 17 16 7 5 0 3 5 0 0 0 0 0 0 0 11 29 16 15 23 26 15
0 0 0 0 0 0 0 10 10 9 0 0 0 20 41 62 48 42 53 24 19 11 13 17 3 3 0 0 0 0 0 1 0 0 0 0 1 0 10 16 17 23 10 15
0 0 0 0 0 0 0 8 31 21 8 1 0 0 2 7 4 2 2 13 11 6 3 2 1 1 4 0 0 0 1 0 0 0 0 2 0 10 32 39 7 2 14 11
0 0 0 0 0 0 11 13 17 19 3 0 1 0 0 6 14 2 13 35 22 11 5 4 1 2 12 6 0 0 0 0 1 2 9 1 4 1 2 0 0 0 0 30
0 0 0 0 0 1 15 5 1 0 8 0 1 0 47 75 69 139 75 25 13 14 15 5 1 0 11 3 0 0 0 0 0 0 0 0 0 0 0 0 1 7 9 1
0 0 0 0 0 0 6 1 0 7 3 8 3 1 0 34 36 31 37 25 38 20 3 0 0 0 1 2 0 0 0 0 0 0 4 10 2 2 1 10 5 3 4 2
0 0 0 1 8 27 4 0 0 5 6 10 8 2 5 18 1 0 3 28 4 0 1 3 0 2 0 0 0 0 0 1 0 0 0 0 1 3 1 2 2 2 3 3
0 2 17 0 14 0 0 0 12 1 19 11 2 0 1 2 8 3 4 16 0 5 0 5 0 0 0 0 0 1 1 7 4 1 0 0 0 1 0 1 1 2 1 1
6 7 23 1 0 3 9 1 3 7 4 3 0 0 0 5 0 2 5 1 1 2 0 0 6 4 0 5 2 0 0 1 3 2 5 0 1 0 1 1 2 1 1 1
5 10 7 3 2 7 1 1 7 1 1 5 2 5 3 3 2 0 3 1 0 0 2 2 2 0 0 0 0 0 0 1 1 3 3 2 2 2 1 1 1 1 1 2
2 2 6 8 2 2 3 0 0 1 5 3 8 2 4 0 2 1 1 2 0 5 0 1 0 0 0 0 0 0 0 1 0 2 5 3 2 2 2 2 1 0 0 1
18 0 0 0 2 0 0 0 2 22 0 0 0 1 0 3 0 0 2 0 2 2 1 0 0 0 0 0 0 0 0 0 3 3 3 1 1 1 1 3 1 1 0 1
3 1 1 0 0 1 1 0 0 0 1 3 1 2 5 1 0 0 0 1 0 2 1 1 0 0 0 0 0 0 0 0 0 2 3 2 1 0 0 1 1 3 2 2
7 1 1 1 2 0 0 1 1 0 3 4 2 7 1 1 0 1 5 2 0 1 1 5 0 0 0 0 0 0 0 0 0 0 0 2 2 1 0 1 1 1 1 1
0 0 1 2 0 0 0 0 1 11 4 4 4 0 12 23 5 0 0 13 0 0 2 5 0 0 0 0 0 0 0 0 0 0 0 2 0 2 0 0 0 1 1 0
CIN
0 0 0 0 0 0 0 0 0 0 0 0 0 0 0 0 0 0 0 0 0 0 0 0 0 0 0 -1 -7 -25 -6 0 -2 0 0 -1 -12 -13 0 0 0 0 0 0
0 0 0 0 0 0 0 -3 0 0 0 0 0 0 0 0 0 0 0 0 0 0 0 0 0 0 0 -11 0 -7 0 -4 -2 -1 0 0 -1 -12 -3 -13 -1 0 0 0
0 0 0 0 0 0 0 0 0 -2 -1 0 0 -1 0 -1 0 0 0 0 0 0 -2 0 0 -5 0 -9 -1 0 0 0 0 0 -1 0 0 0 -8 -5 -3 -2 -8 -1
0 0 0 0 0 0 0 -3 -1 0 0 0 0 -1 -1 -1 -3 -1 -3 0 0 0 -1 -4 -6 -3 -2 -12 -20 -2 -13 -8 0 0 0 0 -1 0 0 0 -3 -2 0 0
0 0 0 0 0 0 -2 0 0 0 -3 -1 -2 -5 0 -1 0 -11 -2 -1 -2 -9 -4 -3 -20 -6 -21 -8 -17 -30 -63 -42 -7 0 -1 -2 -8 0 0 -7 0 0 0 0
0 0 0 0 0 0 -1 0 0 -1 -1 -3 -2 -4 -2 -4 -5 -3 -2 -2 -2 -4 -2 0 0 0 0 0 0 0 0 -9 -1 0 -3 -9 0 0 -17 -6 -9 -8 -19 0
0 0 0 0 0 0 -2 -5 -1 -1 -1 0 0 0 0 0 -2 -3 -2 -5 -3 -3 0 0 0 0 0 0 0 0 0 0 -15 0 -3 -2 0 0 0 -7 -13 -22 -7 0
0 0 0 0 0 0 -2 0 -5 -1 -3 0 0 0 0 0 0 0 0 0 0 0 0 0 0 0 0 0 0 0 0 -17 0 -6 0 0 0 0 0 0 -8 0 0 0
0 0 0 0 0 0 -2 -3 -3 0 0 -5 -2 0 -1 0 -2 -6 -4 -6 0 0 0 -1 -2 -1 -2 -7 -5 -7 -20 -15 -11 -27 -5 -5 0 0 0 -10 0 0 0 0
0 0 0 0 0 0 -4 -2 -4 -2 0 -2 -1 0 -3 -2 -3 -5 -5 -4 -3 -3 0 -3 -3 -4 -5 -7 -7 -14 -12 -6 -10 -25 -9 -13 0 0 -5 -17 -3 0 0 0
0 0 0 0 0 0 0 -1 0 -1 -1 -2 -2 -1 -1 0 -2 0 -3 -4 -5 -8 -2 -3 -3 -5 -3 -13 -8 -11 -13 -12 0 -10 -4 -3 0 -11 -22 -8 0 -3 0 0
0 0 0 0 0 0 0 -1 -1 -1 0 0 0 0 0 -1 -3 -4 -4 -2 -12 -4 -6 -5 -3 -1 -6 0 0 0 0 -13 -12 -7 -2 0 -2 0 -15 -16 -6 -11 -6 -1
0 0 0 0 0 0 0 -1 -1 -1 0 0 0 -1 -1 -16 -5 -25 -2 -35 -15 -5 -7 -2 -3 -2 -4 -5 -3 -5 0 -7 -18 0 0 0 0 -5 -2 -7 -16 -16 -7 -25
0 0 0 0 0 0 0 -2 -1 -1 -1 0 0 -3 -3 -3 -6 -10 -3 -13 -12 -5 -2 -3 -5 -1 -1 0 0 0 -4 -2 0 0 0 -6 -4 -2 -20 -17 -16 -8 -13 -13
0 0 0 0 0 0 0 -1 -1 -1 0 -1 0 0 -12 -7 -15 -10 -2 -2 -2 -7 -6 -1 -1 -1 -1 -1 0 0 -36 0 0 0 0 -6 0 -7 -2 -4 -2 -38 -10 -2
0 0 0 0 0 0 -1 0 -1 -1 -5 -1 -1 0 -1 -15 -11 -33 -5 -1 -8 -10 -2 -1 -1 -57 -1 0 0 0 0 0 -15 -19 -1 0 -2 -11 -28 0 0 0 -25 -41
0 0 0 0 0 -1 -1 0 -1 -1 -1 -1 0 -1 -2 -10 -4 -1 -1 -4 -16 -3 -1 0 -1 0 -1 -1 0 0 0 0 -2 -1 0 0 0 0 0 0 -13 -7 0 -1
0 0 0 0 0 0 -1 0 0 0 -1 0 -1 -1 -6 -3 -2 -5 -1 -5 -4 -2 -1 0 0 -1 -1 -1 0 0 -2 0 0 0 0 0 0 0 0 0 0 0 0 -2
0 0 0 -2 -2 -1 -1 0 0 0 -1 0 0 -1 -1 -7 -1 -1 -8 -2 -1 0 -1 -1 -3 -1 -1 0 0 0 0 0 0 0 0 0 0 -1 0 0 -1 0 0 -1
0 -4 -1 0 0 0 0 -3 0 -1 -1 -2 0 0 -1 -2 -2 -4 -3 0 0 0 0 -4 -4 0 -1 0 0 -15 0 0 0 0 0 0 0 0 0 0 0 0 0 0
-2 -1 -1 -1 0 -1 -1 0 -1 -1 0 0 0 0 0 -2 0 -1 0 -2 -1 0 -1 0 0 -1 -1 -9 -3 0 0 -1 0 0 0 -1 0 0 0 0 0 0 0 0
0 -1 -2 -1 -1 -1 0 -1 -1 -1 -1 -4 -1 -1 -1 0 -1 -1 0 0 -1 0 -1 0 -2 0 -1 0 0 0 -1 -1 0 0 0 0 0 0 0 0 0 0 0 0
-2 0 -1 0 -1 0 0 0 0 0 -1 -7 -2 0 -2 0 0 0 0 0 0 -2 0 -1 0 0 0 0 0 0 0 0 0 0 0 0 0 0 0 0 0 0 0 -1
-1 -4 0 0 -1 0 0 0 -1 -3 0 0 0 -1 0 0 0 0 0 0 -2 -1 -2 -1 0 0 0 0 0 0 0 0 0 0 0 0 0 0 0 0 0 0 0 0
-1 -1 -1 0 0 -2 -2 0 0 0 -1 -1 -1 0 -1 0 0 0 -1 -1 -1 -2 0 -1 -1 0 0 0 0 0 0 0 0 0 -1 -1 0 0 0 0 0 0 0 0
-1 -1 -1 -1 -1 0 0 -1 0 0 -2 -2 -1 -8 -1 -1 0 -3 -7 -1 -3 0 -1 0 -1 0 0 0 0 0 0 0 0 0 0 0 0 0 0 0 0 0 0 0
0 0 0 0 0 0 0 0 -1 -1 0 -1 -1 -7 -4 -4 -4 0 -2 -5 0 0 -1 -1 0 0 0 0 0 0 0 0 0 0 0 -1 -1 0 0 0 0 0 0 0
Wind_Speed
10 6 5 3 6 7 10 15 21 15 10 21 24 35 29 28 32 28 27 27 34 37 36 37 36 34 32 23 28 28 26 29 34 41 40 37 32 34 32 38 38 34 36 41
8 4 2 2 4 8 11 17 19 14 12 28 30 27 29 29 32 29 28 33 31 30 36 41 34 33 34 22 30 29 26 31 37 39 36 30 29 26 28 29 30 39 41 40
7 4 3 3 8 11 13 13 22 18 16 21 26 29 31 31 24 28 30 33 30 33 33 31 34 34 35 28 25 23 26 34 37 43 42 42 43 35 28 27 34 37 38 43
4 0 2 6 8 12 15 17 17 15 21 21 21 23 26 28 29 25 22 25 24 27 33 32 33 36 37 36 26 28 28 39 36 39 42 44 46 48 45 44 42 45 51 49
2 2 4 5 7 10 15 16 17 18 19 16 17 20 23 25 24 23 22 24 25 26 29 29 28 33 34 32 29 27 26 32 33 43 41 40 43 43 43 45 47 51 52 56
11 11 10 9 9 10 14 15 15 17 18 17 19 20 20 20 19 19 20 22 24 26 26 26 27 30 31 31 33 35 36 35 36 42 37 38 40 37 39 42 41 44 48 48
12 11 10 9 9 13 13 13 12 16 19 18 18 18 17 18 18 20 21 20 23 25 26 30 32 33 33 33 34 33 38 37 38 45 44 49 42 36 40 46 45 44 45 45
11 10 9 9 9 14 14 11 12 12 17 14 14 15 16 17 20 22 23 24 25 26 29 33 33 34 35 33 32 31 29 34 40 43 46 46 48 43 43 46 49 40 47 46
10 9 8 8 8 12 13 14 14 12 13 14 16 16 17 20 23 23 22 20 18 21 25 29 36 38 37 34 34 27 27 26 33 38 42 47 40 39 44 46 48 41 40 40
9 8 8 8 8 10 13 13 13 14 14 17 16 18 21 21 23 24 22 19 19 17 24 30 33 36 32 38 37 35 33 33 36 38 43 42 33 39 42 45 44 43 42 41
9 9 8 8 8 9 13 13 14 17 17 19 18 19 21 21 19 24 22 23 19 21 25 26 29 29 29 31 32 35 36 37 38 38 41 43 37 40 35 39 44 43 45 43
9 8 7 7 8 10 13 14 15 17 16 17 23 19 22 23 24 24 18 18 21 18 22 23 25 29 33 37 43 35 42 37 41 39 39 42 47 47 47 47 46 46 45 47
6 6 6 7 8 9 11 15 14 15 18 22 20 22 17 12 11 13 19 19 21 26 29 29 26 28 29 34 35 39 39 39 45 46 44 47 49 46 43 45 46 45 44 41
5 6 7 7 8 10 11 14 14 16 18 22 24 22 19 15 13 14 12 17 23 24 24 25 25 29 27 31 36 37 36 39 40 38 37 34 33 36 36 34 28 34 31 28
7 7 8 9 11 11 12 15 15 13 18 23 28 28 21 17 16 14 15 17 18 21 21 21 22 22 17 21 27 27 23 23 23 26 25 25 27 29 24 26 36 33 26 21
7 8 9 11 12 13 14 17 13 11 14 20 26 21 25 22 18 17 17 14 15 11 16 18 11 18 22 20 21 22 19 17 16 21 23 27 28 35 45 46 48 49 49 42
8 9 12 13 13 12 14 16 13 12 12 20 24 23 20 16 13 12 10 3 18 26 24 23 25 24 22 24 26 24 23 25 25 27 37 37 23 49 51 53 52 50 40 37
10 13 13 11 10 12 12 12 11 12 12 9 12 7 11 12 16 18 20 23 25 24 22 21 19 18 18 20 18 17 16 26 26 22 17 20 25 27 29 25 22 20 26 36
9 10 11 12 12 13 13 12 11 10 13 14 13 11 10 13 13 15 16 18 18 15 15 15 15 15 13 12 15 24 23 29 38 44 35 27 14 17 27 25 23 20 24 17
10 10 13 14 13 12 12 16 16 17 15 15 16 14 15 13 13 13 14 15 17 19 17 16 16 12 13 10 8 6 15 27 39 33 36 38 32 21 27 26 22 15 12 11
11 12 13 13 12 13 14 18 19 19 17 17 15 12 12 9 16 17 15 16 15 15 14 14 12 12 19 11 17 24 31 33 34 26 34 31 14 23 22 21 18 11 6 5
11 14 12 13 13 15 19 20 19 19 17 16 15 15 11 13 15 17 16 16 15 14 13 12 11 19 22 26 31 34 33 33 36 32 29 28 24 23 16 11 8 1 4 7
10 12 14 12 16 21 21 20 19 19 19 17 15 17 16 16 16 17 15 15 13 12 10 10 17 28 30 33 32 35 34 34 34 32 29 28 26 25 20 13 8 10 11 13
10 10 11 21 22 22 22 21 19 20 19 19 17 21 22 15 11 15 11 10 13 5 8 15 26 32 33 33 35 37 39 40 29 31 32 31 30 29 28 27 25 23 12 13
10 11 22 25 25 23 21 21 21 21 21 22 23 20 20 20 17 14 15 18 22 19 18 25 31 32 33 36 38 38 37 28 19 25 32 33 32 32 31 31 31 28 19 17
12 23 24 24 25 25 24 24 23 22 23 25 24 22 22 20 18 20 20 24 24 21 26 28 29 32 34 36 37 38 36 24 18 19 22 27 33 34 32 31 31 29 22 17
20 24 27 29 29 28 28 27 25 25 26 26 24 24 22 24 23 26 23 27 28 27 29 29 30 32 35 37 38 39 39 35 31 28 21 20 16 24 33 32 30 29 25 18
Wind_Direction
166 186 222 272 306 314 312 292 286 320 325 287 290 283 294 301 303 310 306 301 299 301 301 298 297 296 299 302 301 297 297 297 294 290 294 299 294 295 292 289 289 289 288 284
162 168 115 26 347 319 318 296 299 323 316 287 287 296 300 299 298 306 304 301 302 303 298 294 294 293 295 305 295 297 303 296 297 296 296 290 290 294 295 293 291 283 282 284
154 114 76 337 306 297 313 309 295 309 306 304 299 296 295 294 304 305 304 301 304 300 297 298 297 293 290 301 298 299 298 290 289 289 290 294 291 293 290 288 289 290 284 286
157 91 313 299 301 300 306 309 307 309 304 299 300 303 307 303 301 303 307 307 300 297 296 297 294 292 292 291 296 294 296 288 289 289 290 287 286 286 286 285 285 283 285 285
166 38 356 351 342 329 314 313 313 311 313 320 306 307 307 303 307 309 305 311 311 307 302 303 305 297 295 294 300 302 298 293 296 292 292 291 288 286 287 286 287 288 289 287
91 85 73 57 42 18 322 331 329 318 315 313 307 306 311 311 315 317 312 311 310 308 307 308 306 304 300 297 295 294 293 296 297 292 299 297 289 291 291 290 292 293 291 295
102 91 77 61 35 7 4 347 349 321 310 311 314 319 321 319 320 316 312 316 310 310 312 308 305 301 297 295 293 294 292 292 292 292 294 286 291 294 294 293 295 297 298 299
91 79 66 42 7 347 4 6 355 343 319 328 326 325 324 322 318 312 308 309 308 319 312 307 304 303 300 297 294 292 289 290 290 288 287 291 290 293 294 296 296 303 298 299
85 77 57 36 11 349 351 354 343 350 336 332 332 324 322 316 314 313 311 321 328 326 313 307 299 297 301 301 301 305 305 298 293 292 290 290 297 298 295 298 293 300 302 301
77 66 42 18 8 356 344 349 337 340 329 325 328 318 319 322 318 313 319 325 319 325 316 304 301 299 303 298 299 301 299 298 293 293 293 296 301 302 297 291 297 300 303 303
74 65 52 39 13 341 333 343 341 332 324 319 329 326 320 319 320 311 322 323 322 317 313 312 310 307 307 304 303 303 301 300 297 298 294 295 302 299 299 303 303 301 299 300
69 55 40 14 357 333 327 338 338 341 333 326 326 325 318 313 306 310 319 316 318 327 322 322 320 311 308 304 298 305 297 302 300 296 297 301 300 298 298 300 302 302 302 299
39 23 9 5 2 353 346 340 350 347 338 330 329 324 327 327 308 312 309 312 315 312 312 313 313 308 311 307 306 307 304 305 298 299 294 297 296 298 301 300 297 290 295 302
19 22 31 18 4 349 345 339 344 341 340 330 326 328 325 333 326 316 305 309 312 311 314 314 311 308 314 310 309 307 306 287 277 258 262 262 258 260 261 257 253 257 255 254
53 27 357 346 343 346 347 337 339 345 334 322 317 321 321 313 307 309 313 309 312 314 315 314 311 316 315 251 249 244 244 240 239 247 255 253 256 257 257 260 285 260 257 264
12 1 351 342 342 342 343 340 355 8 354 339 328 334 319 318 319 314 309 310 317 322 325 327 339 226 231 233 235 245 241 239 240 253 262 266 268 272 298 299 292 289 280 266
1 345 331 326 332 346 340 344 18 28 20 349 338 335 335 343 339 335 347 117 201 230 230 226 236 238 232 234 242 250 260 261 263 267 278 274 276 296 291 288 288 294 265 250
328 316 325 351 11 4 0 12 30 33 43 101 54 74 194 180 183 197 206 226 236 230 222 228 231 237 222 221 236 247 256 274 273 276 305 316 282 273 268 266 263 264 304 287
350 12 25 12 1 356 4 15 17 125 183 209 172 198 208 141 177 194 195 206 209 200 201 206 207 205 186 206 240 269 274 341 332 321 332 277 306 292 291 278 271 272 254 252
35 32 350 348 358 17 22 327 295 223 172 165 209 201 208 210 205 203 211 188 209 233 219 214 178 188 210 225 249 298 359 352 340 346 295 299 290 341 285 275 265 317 293 266
358 358 351 357 10 360 318 249 240 225 224 207 205 177 202 166 221 229 216 223 210 216 181 136 135 85 19 49 25 8 358 354 349 291 299 295 326 289 287 284 277 269 296 260
3 345 21 359 359 278 230 223 236 230 233 239 243 240 218 222 205 211 202 209 189 191 54 124 133 11 19 12 6 1 2 1 331 306 300 297 295 292 287 296 303 339 122 141
16 11 347 4 259 224 219 229 244 247 261 241 243 259 252 245 201 212 196 193 171 51 111 98 349 345 358 354 7 2 6 8 321 312 306 303 303 303 296 293 303 72 95 124
23 14 354 241 218 221 227 238 266 265 247 253 251 266 282 298 29 349 30 55 21 83 126 346 339 329 343 353 357 352 346 346 313 315 316 312 315 315 309 314 312 318 81 86
16 357 240 222 226 244 251 259 257 261 265 271 279 270 320 315 331 357 3 335 306 321 325 328 326 339 344 343 336 329 325 308 307 310 316 318 315 320 317 320 326 342 18 18
348 254 239 244 245 246 257 256 258 264 271 292 295 312 312 318 333 331 334 311 307 325 334 338 340 339 340 334 328 322 316 299 299 304 306 307 317 320 317 321 336 346 5 16
288 255 249 245 248 252 259 264 257 280 298 306 310 309 317 321 320 318 330 313 319 325 330 334 334 333 335 332 328 322 316 305 301 301 299 298 298 302 331 325 326 340 355 26